DAMPE

Last updated on Tue Sep 16 2025 00:03:34 GMT+0000 (Coordinated Universal Time)

1 41173U 15078A 25258.60506634 .00001433 00000+0 52371-4 0 9991 2 41173 97.4536 257.9796 0011503 338.4186 21.6568 15.29730018542555
UTC large
Height (km)
Speed (km/s)
/
Latitude / Longitude
Inclination (degrees)
Orbital Period (minutes)
Azimuth
Elevation
Range (km)
Doppler Factor

Next 0 passes for location: London (51.5072 / 0.1276)

Sorry there are no passes over London.